Muscle Shoals, AL

9:07 PM CST on December 10, 2019 (GMT -0600)
Northwest Alabama Regional

Weather History for KMSL - October, 2019

Change the Weather History Date:

Monday, October 14, 2019

  Actual Average Record
Temperature  
Mean Temperature 59 °F 63 °F  
Max Temperature 75 °F 75 °F 90 °F (1940)
Min Temperature 43 °F 50 °F 27 °F (1917)
Degree Days  
Heating Degree Days 6 4  
Month to date heating degree days 26 43  
Since 1 July heating degree days 26 58  
Cooling Degree Days 0 2  
Month to date cooling degree days 127 40  
Year to date cooling degree days 2485 1842  
Growing Degree Days 8 (Base 50)    
Moisture  
Dew Point 48 °F    
Average Humidity 70    
Maximum Humidity 97    
Minimum Humidity 43    
Precipitation  
Precipitation 0.00 in 0.11 in 1.89 in (1909)
Month to date precipitation 1.20 1.48  
Year to date precipitation 47.72 40.91  
Snow  
Snow 0.00 in - - ()
Month to date snowfall 0.0  
Since 1 July snowfall 0.0  
Since 1 September snowfall 0.0  
Snow Depth 0.00 in    
Sea Level Pressure  
Sea Level Pressure 30.11 in    
Wind  
Wind Speed 2 mph (SSE)    
Max Wind Speed 9 mph    
Max Gust Speed 12 mph    
Visibility 6 miles    
Events Fog    
T = Trace of Precipitation, MM = Missing Value Source: NWS Daily Summary

Daily Weather History Graph

Daily Weather History Graph

Search for Another Location

Airport or City:

Astronomy

Oct. 14, 2019 Rise Set
Actual Time 6:55 AM CDT 6:17 PM CDT
Civil Twilight 6:29 AM CDT 6:42 PM CDT
Nautical Twilight 6:00 AM CDT 7:11 PM CDT
Astronomical Twilight 5:31 AM CDT 7:41 PM CDT
Moon 7:07 PM CDT (10/14) 7:27 AM CDT (10/14)
Length of Visible Light 12h 12m
Length of Day
11h 22m
Full, 99% of the Moon is Illuminated
Oct 14
Full
Oct 21
Last Quarter
Oct 27
New
Nov 4
First Quarter
Nov 12
Full

Hourly Weather History & Observations

Time (CDT) Temp. Windchill Dew Point Humidity Pressure Visibility Wind Dir Wind Speed Gust Speed Precip Events Conditions
12:53 AM 46.9 °F - 44.1 °F 90% 30.09 in 10.0 mi Calm Calm - N/A   Clear
1:53 AM 48.0 °F - 45.0 °F 89% 30.10 in 10.0 mi Calm Calm - N/A   Clear
2:53 AM 45.0 °F - 43.0 °F 93% 30.10 in 0.5 mi Calm Calm - N/A Fog Fog
3:16 AM 44.1 °F - 42.1 °F 93% 30.10 in 1.0 mi Calm Calm - N/A   Mist
3:25 AM 44.1 °F - 42.1 °F 93% 30.10 in 8.0 mi Calm Calm - N/A   Mostly Cloudy
3:32 AM 44.1 °F - 41.0 °F 89% 30.10 in 10.0 mi Calm Calm - N/A   Scattered Clouds
3:49 AM 44.6 °F - 42.8 °F 93% 30.11 in 7.0 mi Calm Calm - N/A   Mostly Cloudy
3:53 AM 43.0 °F - 41.0 °F 93% 30.10 in 4.0 mi Calm Calm - N/A   Mostly Cloudy
3:59 AM 43.0 °F 41.3 °F 41.0 °F 93% 30.10 in 1.8 mi SSE 3.5 mph - N/A   Mostly Cloudy
4:10 AM 43.0 °F - 41.0 °F 93% 30.10 in 0.5 mi Calm Calm - N/A Fog Fog
4:18 AM 44.1 °F - 42.1 °F 93% 30.10 in 1.2 mi Calm Calm - N/A   Scattered Clouds
4:40 AM 46.0 °F - 44.1 °F 93% 30.10 in 0.8 mi Calm Calm - N/A   Mist
4:53 AM 46.0 °F - 45.0 °F 96% 30.11 in 0.5 mi Calm Calm - N/A Fog Fog
5:21 AM 46.9 °F - 45.0 °F 93% 30.12 in 0.2 mi SSE 4.6 mph - N/A Fog Fog
5:44 AM 46.9 °F - 46.0 °F 97% 30.13 in 0.5 mi SSE 3.5 mph - N/A Fog Fog
5:53 AM 48.0 °F - 46.0 °F 93% 30.13 in 0.2 mi South 3.5 mph - N/A Fog Fog
6:53 AM 48.9 °F - 46.9 °F 93% 30.13 in 0.2 mi Calm Calm - N/A Fog Fog
7:53 AM 50.0 °F - 48.0 °F 93% 30.14 in 0.2 mi SSE 5.8 mph - N/A Fog Fog
8:53 AM 51.1 °F - 50.0 °F 96% 30.17 in 0.2 mi Calm Calm - N/A Fog Fog
9:18 AM 52.0 °F - 50.0 °F 93% 30.16 in 0.8 mi East 4.6 mph - N/A   Mist
9:22 AM 52.0 °F - 50.0 °F 93% 30.16 in 2.0 mi East 5.8 mph - N/A   Overcast
9:30 AM 52.0 °F - 51.1 °F 97% 30.16 in 5.0 mi East 3.5 mph - N/A   Overcast
9:53 AM 53.1 °F - 50.0 °F 89% 30.17 in 10.0 mi ESE 3.5 mph - N/A   Overcast
10:22 AM 54.0 °F - 51.1 °F 90% 30.17 in 10.0 mi Calm Calm - N/A   Overcast
10:53 AM 57.9 °F - 52.0 °F 81% 30.15 in 10.0 mi Variable 3.5 mph - N/A   Partly Cloudy
11:53 AM 64.9 °F - 52.0 °F 63% 30.15 in 10.0 mi Variable 4.6 mph - N/A   Clear
12:53 PM 68.0 °F - 50.0 °F 52% 30.12 in 10.0 mi Variable 3.5 mph - N/A   Partly Cloudy
1:53 PM 71.1 °F - 48.0 °F 44% 30.09 in 10.0 mi SSE 3.5 mph - N/A   Overcast
2:53 PM 72.0 °F - 48.0 °F 43% 30.08 in 10.0 mi Calm Calm - N/A   Mostly Cloudy
3:53 PM 73.9 °F - 50.0 °F 43% 30.07 in 10.0 mi NNW 3.5 mph - N/A   Mostly Cloudy
4:53 PM 73.0 °F - 50.0 °F 44% 30.07 in 10.0 mi Calm Calm - N/A   Overcast
5:53 PM 71.1 °F - 51.1 °F 49% 30.08 in 10.0 mi West 3.5 mph - N/A   Overcast
6:53 PM 69.1 °F - 55.0 °F 61% 30.07 in 10.0 mi Calm Calm - N/A   Overcast
7:53 PM 68.0 °F - 57.0 °F 68% 30.08 in 10.0 mi Calm Calm - N/A   Overcast
8:53 PM 66.9 °F - 55.9 °F 68% 30.08 in 10.0 mi South 6.9 mph - N/A   Overcast
9:53 PM 66.9 °F - 55.9 °F 68% 30.09 in 10.0 mi SSE 3.5 mph - N/A   Overcast
10:53 PM 66.9 °F - 55.0 °F 66% 30.09 in 10.0 mi Calm Calm - N/A   Overcast
11:53 PM 66.0 °F - 55.9 °F 70% 30.08 in 10.0 mi Calm Calm - N/A   Overcast